TimeCST,TemperatureF,Dew PointF,Humidity,Sea Level PressureIn,VisibilityMPH,Wind Direction,Wind SpeedMPH,Gust SpeedMPH,PrecipitationIn,Events,Conditions,WindDirDegrees,DateUTC
12:15 AM,17.6,10.4,73,29.59,10.0,WNW,28.8,35.7,N/A,Snow,Light Snow,300,2014-02-21 06:15:00
12:35 AM,17.6,10.4,73,29.60,10.0,WNW,24.2,36.8,N/A,,Overcast,300,2014-02-21 06:35:00
12:55 AM,17.6,10.4,73,29.59,10.0,WNW,24.2,31.1,N/A,,Mostly Cloudy,300,2014-02-21 06:55:00
1:15 AM,15.8,10.4,79,29.60,10.0,WNW,23.0,34.5,N/A,,Mostly Cloudy,300,2014-02-21 07:15:00
1:35 AM,15.8,8.6,73,29.61,10.0,WNW,20.7,29.9,N/A,,Scattered Clouds,300,2014-02-21 07:35:00
1:55 AM,15.8,8.6,73,29.61,10.0,WNW,19.6,28.8,N/A,,Clear,300,2014-02-21 07:55:00
2:15 AM,15.8,8.6,73,29.61,10.0,WNW,20.7,28.8,N/A,,Clear,300,2014-02-21 08:15:00
2:35 AM,15.8,8.6,73,29.61,10.0,WNW,19.6,28.8,N/A,,Clear,290,2014-02-21 08:35:00
2:55 AM,15.8,8.6,73,29.62,10.0,WNW,19.6,26.5,N/A,,Partly Cloudy,290,2014-02-21 08:55:00
3:15 AM,15.8,8.6,73,29.62,10.0,WNW,17.3,-,N/A,,Clear,300,2014-02-21 09:15:00
3:35 AM,15.8,8.6,73,29.62,10.0,WNW,17.3,23.0,N/A,,Clear,290,2014-02-21 09:35:00
3:55 AM,15.8,8.6,73,29.63,10.0,WNW,15.0,23.0,N/A,,Clear,290,2014-02-21 09:55:00
4:15 AM,15.8,8.6,73,29.64,10.0,WNW,13.8,26.5,N/A,,Clear,290,2014-02-21 10:15:00
4:35 AM,15.8,8.6,73,29.64,10.0,WNW,15.0,-,N/A,,Clear,290,2014-02-21 10:35:00
4:55 AM,15.8,8.6,73,29.65,10.0,West,16.1,23.0,N/A,,Clear,280,2014-02-21 10:55:00
5:15 AM,15.8,6.8,68,29.66,10.0,WNW,18.4,-,N/A,,Clear,290,2014-02-21 11:15:00
5:35 AM,14.0,6.8,73,29.67,10.0,WNW,16.1,23.0,N/A,,Clear,290,2014-02-21 11:35:00
5:55 AM,15.8,6.8,68,29.66,10.0,WNW,17.3,24.2,N/A,,Clear,290,2014-02-21 11:55:00
6:15 AM,14.0,6.8,73,29.67,10.0,WNW,17.3,-,N/A,,Clear,290,2014-02-21 12:15:00
6:35 AM,14.0,6.8,73,29.67,10.0,WNW,16.1,23.0,N/A,,Clear,290,2014-02-21 12:35:00
6:55 AM,14.0,6.8,73,29.67,10.0,WNW,16.1,21.9,N/A,,Clear,290,2014-02-21 12:55:00
7:15 AM,14.0,6.8,73,29.67,10.0,WNW,16.1,23.0,N/A,,Clear,300,2014-02-21 13:15:00
7:35 AM,14.0,6.8,73,29.67,10.0,WNW,11.5,20.7,N/A,,Clear,300,2014-02-21 13:35:00
7:55 AM,15.8,6.8,68,29.68,10.0,WNW,13.8,-,N/A,,Clear,290,2014-02-21 13:55:00
8:15 AM,15.8,6.8,68,29.69,10.0,WNW,16.1,-,N/A,,Clear,290,2014-02-21 14:15:00
8:35 AM,15.8,6.8,68,29.68,10.0,WNW,12.7,20.7,N/A,,Clear,300,2014-02-21 14:35:00
8:55 AM,17.6,6.8,63,29.68,10.0,WNW,15.0,21.9,N/A,,Clear,300,2014-02-21 14:55:00
9:15 AM,17.6,6.8,63,29.69,10.0,West,15.0,20.7,N/A,,Clear,280,2014-02-21 15:15:00
9:35 AM,17.6,6.8,63,29.70,10.0,West,16.1,-,N/A,,Clear,280,2014-02-21 15:35:00
9:55 AM,19.4,6.8,58,29.70,10.0,West,18.4,-,N/A,,Clear,280,2014-02-21 15:55:00
10:15 AM,21.2,6.8,54,29.69,10.0,WNW,12.7,20.7,N/A,,Clear,290,2014-02-21 16:15:00
10:35 AM,21.2,6.8,54,29.71,10.0,West,15.0,-,N/A,,Clear,270,2014-02-21 16:35:00
10:55 AM,23.0,8.6,54,29.71,10.0,West,18.4,-,N/A,,Clear,280,2014-02-21 16:55:00
11:15 AM,23.0,8.6,54,29.71,10.0,West,18.4,-,N/A,,Clear,270,2014-02-21 17:15:00
11:35 AM,24.8,10.4,54,29.70,10.0,West,17.3,-,N/A,,Clear,280,2014-02-21 17:35:00
11:55 AM,24.8,12.2,59,29.70,10.0,West,17.3,-,N/A,,Clear,270,2014-02-21 17:55:00
12:15 PM,26.6,14.0,59,29.70,10.0,West,13.8,20.7,N/A,,Clear,270,2014-02-21 18:15:00
12:35 PM,26.6,14.0,59,29.69,10.0,West,16.1,-,N/A,,Clear,270,2014-02-21 18:35:00
12:55 PM,26.6,14.0,59,29.70,10.0,West,16.1,23.0,N/A,,Clear,280,2014-02-21 18:55:00
1:15 PM,28.4,12.2,51,29.70,10.0,West,18.4,-,N/A,,Clear,280,2014-02-21 19:15:00
1:35 PM,28.4,14.0,55,29.70,10.0,West,19.6,-,N/A,,Clear,280,2014-02-21 19:35:00
1:55 PM,28.4,15.8,59,29.70,-9999.0,West,16.1,-,N/A,,Clear,280,2014-02-21 19:55:00
2:15 PM,30.2,14.0,51,29.70,10.0,WNW,18.4,-,N/A,,Clear,290,2014-02-21 20:15:00
2:35 PM,30.2,15.8,55,29.70,10.0,West,17.3,-,N/A,,Clear,280,2014-02-21 20:35:00
2:55 PM,30.2,15.8,55,29.71,10.0,WNW,18.4,24.2,N/A,,Clear,290,2014-02-21 20:55:00
3:15 PM,30.2,17.6,60,29.71,10.0,West,20.7,26.5,N/A,,Clear,280,2014-02-21 21:15:00
3:35 PM,30.2,15.8,55,29.72,10.0,WNW,17.3,-,N/A,,Clear,300,2014-02-21 21:35:00
3:55 PM,30.2,17.6,60,29.73,10.0,WNW,15.0,23.0,N/A,,Clear,290,2014-02-21 21:55:00
4:15 PM,30.2,19.4,64,29.74,10.0,WNW,15.0,24.2,N/A,,Clear,290,2014-02-21 22:15:00
4:35 PM,30.2,17.6,60,29.74,10.0,WNW,16.1,-,N/A,,Clear,300,2014-02-21 22:35:00
4:55 PM,30.2,19.4,64,29.75,10.0,WNW,11.5,20.7,N/A,,Clear,300,2014-02-21 22:55:00
5:15 PM,30.2,19.4,64,29.75,10.0,NW,12.7,18.4,N/A,,Clear,310,2014-02-21 23:15:00
5:35 PM,28.4,17.6,64,29.75,10.0,NNW,13.8,-,N/A,,Clear,330,2014-02-21 23:35:00
5:55 PM,28.4,17.6,64,29.76,10.0,NW,8.1,-,N/A,,Clear,320,2014-02-21 23:55:00
6:15 PM,26.6,19.4,74,29.77,10.0,NW,8.1,-,N/A,,Clear,320,2014-02-22 00:15:00
6:35 PM,26.6,17.6,69,29.77,10.0,NW,8.1,-,N/A,,Clear,320,2014-02-22 00:35:00
6:55 PM,23.0,17.6,80,29.78,10.0,NW,5.8,-,N/A,,Clear,310,2014-02-22 00:55:00
7:15 PM,24.8,17.6,74,29.79,10.0,NW,8.1,-,N/A,,Clear,310,2014-02-22 01:15:00
7:35 PM,23.0,17.6,80,29.80,10.0,NW,6.9,-,N/A,,Clear,310,2014-02-22 01:35:00
7:55 PM,23.0,15.8,74,29.80,10.0,NW,8.1,-,N/A,,Clear,310,2014-02-22 01:55:00
8:15 PM,23.0,15.8,74,29.80,10.0,NW,9.2,-,N/A,,Clear,310,2014-02-22 02:15:00
8:35 PM,21.2,15.8,80,29.80,10.0,NW,8.1,-,N/A,,Clear,310,2014-02-22 02:35:00
8:55 PM,23.0,14.0,68,29.81,10.0,WNW,6.9,-,N/A,,Clear,290,2014-02-22 02:55:00
9:15 PM,21.2,14.0,74,29.81,10.0,West,5.8,-,N/A,,Clear,280,2014-02-22 03:15:00
9:35 PM,19.4,14.0,80,29.82,10.0,WNW,6.9,-,N/A,,Clear,290,2014-02-22 03:35:00
9:55 PM,19.4,12.2,74,29.83,10.0,West,6.9,-,N/A,,Clear,280,2014-02-22 03:55:00
10:15 PM,17.6,12.2,79,29.82,10.0,NNW,5.8,-,N/A,,Scattered Clouds,330,2014-02-22 04:15:00
10:35 PM,19.4,12.2,74,29.83,10.0,NW,9.2,-,N/A,,Mostly Cloudy,310,2014-02-22 04:35:00
10:55 PM,19.4,12.2,74,29.84,-9999.0,NW,5.8,-,N/A,,Partly Cloudy,320,2014-02-22 04:55:00
11:15 PM,19.4,10.4,68,29.84,10.0,NW,6.9,-,N/A,,Clear,320,2014-02-22 05:15:00
11:35 PM,19.4,8.6,63,29.84,10.0,WNW,10.4,-,N/A,,Clear,300,2014-02-22 05:35:00
11:55 PM,19.4,8.6,63,29.85,10.0,NW,10.4,-,N/A,,Partly Cloudy,310,2014-02-22 05:55:00